This is the latest recevied weather packets stored in our database for station/object KI7CSN-13. If no packets are shown the sender has not sent any weather packets the latest 1 day(s).
| Time | Temp. | Humidity | Pressure | Rain* | Wind** | Luminosity | Snow |
|---|---|---|---|---|---|---|---|
| 1778082458 | 15° C | 39% | 984.8 hPa | 0 mm | - | - | - |
| 1778082158 | 14.44° C | 40% | 984.9 hPa | 0 mm | - | - | - |
| 1778081858 | 13.89° C | 41% | 984.8 hPa | 0 mm | - | - | - |
| 1778081558 | 13.33° C | 42% | 984.8 hPa | 0 mm | - | - | - |
| 1778081258 | 13.33° C | 42% | 984.8 hPa | 0 mm | - | - | - |
| 1778080958 | 13.33° C | 43% | 984.8 hPa | 0 mm | - | - | - |
| 1778080658 | 12.78° C | 44% | 984.8 hPa | 0 mm | - | - | - |
| 1778080358 | 12.78° C | 45% | 984.7 hPa | 0 mm | - | - | - |
| 1778080058 | 12.22° C | 46% | 984.7 hPa | 0 mm | - | - | - |
| 1778079758 | 12.78° C | 46% | 984.6 hPa | 0 mm | - | - | - |
| 1778079458 | 12.22° C | 47% | 984.6 hPa | 0 mm | - | - | - |
| 1778078858 | 11.67° C | 48% | 984.7 hPa | 0 mm | - | - | - |
| 1778078558 | 11.67° C | 49% | 984.6 hPa | 0 mm | - | - | - |
| 1778077958 | 11.11° C | 51% | 984.3 hPa | 0 mm | - | - | - |
| 1778077658 | 11.11° C | 53% | 984.3 hPa | 0 mm | - | - | - |
| 1778077358 | 10.56° C | 55% | 984.3 hPa | 0 mm | - | - | - |
| 1778077058 | 10° C | 57% | 984.3 hPa | 0 mm | - | - | - |
| 1778076758 | 9.44° C | 58% | 984.3 hPa | 0 mm | - | - | - |
| 1778076158 | 9.44° C | 59% | 984.3 hPa | 0 mm | - | - | - |
| 1778075258 | 8.89° C | 60% | 984 hPa | 0 mm | - | - | - |
| 1778074958 | 8.89° C | 61% | 984 hPa | 0 mm | - | - | - |
| 1778074058 | 8.33° C | 63% | 983.8 hPa | 0 mm | - | - | - |
| 1778073458 | 7.22° C | 66% | 983.8 hPa | 0 mm | - | - | - |
| 1778073159 | 6.67° C | 68% | 983.5 hPa | 0 mm | - | - | - |
| 1778072558 | 6.67° C | 64% | 983.4 hPa | 0 mm | - | - | - |
* Rain latest hour (hover to see other rain measurements)
** Current wind speed in m/s (hover to see current wind gust speed)